Location: Demmingen
(48.6757°N, 10.4375°E)
Time: 22:40:03
(UTC+00:00)

Lacrosse 5 rocket - Pass Details

Date: 23 May 2024
Orbit: 446 x 572 km, 57.0° (Epoch: 14 June)

Event Time Altitude Azimuth Distance (km) Brightness Sun altitude
Rises 01:20:36 0° 304° (WNW) 2,731 4.9 -15.2°
Reaches altitude 10° 01:22:54 10° 300° (WNW) 1,815 3.9 -15.0°
Maximum altitude 01:26:54 54° 223° (SW) 643 1.3 -14.7°
Drops below altitude 10° 01:30:44 10° 145° (SE) 1,729 3.6 -14.4°
Sets 01:32:53 0° 141° (SE) 2,588 4.6 -14.2°
